contact:dominique.lefevre@mio.osupytheas.fr, maurice.libes@osupytheas.fr, didier.mallarino@osupytheas.fr
Project:EMSO http://www.emso-fr.org/EMSO-France
Depth: 2436.0 m
Title:EMSO Ligure Ouest : Data MII capteur MICROCAT
DateTime_Computer,Latitude,Longitude,Temperature,Conductivity,Pressure,DateTime_Instrument
DateTime_Computer,Latitude,Longitude,degC,S m-1,dbar,DateTime_Instrument
2023-02-14T00:02:33Z,42.805,6.029,13.3042,4.60155,2470.614,2023-2-14T02:04:56Z
2023-02-14T00:05:36Z,42.805,6.029,13.3034,4.60148,2470.577,2023-2-14T02:07:59Z
2023-02-14T00:08:39Z,42.805,6.029,13.3039,4.60117,2470.577,2023-2-14T02:11:02Z
2023-02-14T00:11:42Z,42.805,6.029,13.3048,4.60138,2470.577,2023-2-14T02:14:05Z
2023-02-14T00:14:45Z,42.805,6.029,13.3029,4.60115,2470.624,2023-2-14T02:17:08Z
2023-02-14T00:17:48Z,42.805,6.029,13.3034,4.60138,2470.614,2023-2-14T02:20:12Z
2023-02-14T00:20:51Z,42.805,6.029,13.3034,4.60112,2470.577,2023-2-14T02:23:15Z
2023-02-14T00:23:55Z,42.805,6.029,13.3036,4.60128,2470.6,2023-2-14T02:26:18Z
2023-02-14T00:26:58Z,42.805,6.029,13.3048,4.60142,2470.6,2023-2-14T02:29:21Z
2023-02-14T00:30:01Z,42.805,6.029,13.3059,4.60135,2470.6,2023-2-14T02:32:24Z
2023-02-14T00:33:04Z,42.805,6.029,13.3056,4.60137,2470.6,2023-2-14T02:35:27Z
2023-02-14T00:36:07Z,42.805,6.029,13.3055,4.60152,2470.577,2023-2-14T02:38:30Z
2023-02-14T00:39:10Z,42.805,6.029,13.3061,4.60140,2470.614,2023-2-14T02:41:33Z
2023-02-14T00:42:13Z,42.805,6.029,13.3062,4.60123,2470.591,2023-2-14T02:44:36Z
2023-02-14T00:45:16Z,42.805,6.029,13.3038,4.60140,2470.614,2023-2-14T02:47:39Z
2023-02-14T00:48:19Z,42.805,6.029,13.3044,4.60141,2470.624,2023-2-14T02:50:42Z
2023-02-14T00:51:22Z,42.805,6.029,13.3042,4.60152,2470.6,2023-2-14T02:53:45Z
2023-02-14T00:54:25Z,42.805,6.029,13.3061,4.60144,2470.6,2023-2-14T02:56:48Z
2023-02-14T00:57:28Z,42.805,6.029,13.3044,4.60147,2470.6,2023-2-14T02:59:52Z
2023-02-14T01:00:31Z,42.805,6.029,13.3060,4.60153,2470.577,2023-2-14T03:02:55Z
2023-02-14T01:03:35Z,42.805,6.029,13.3054,4.60146,2470.624,2023-2-14T03:05:58Z
2023-02-14T01:06:38Z,42.805,6.029,13.3063,4.60159,2470.577,2023-2-14T03:09:01Z
2023-02-14T01:09:41Z,42.805,6.029,13.3055,4.60165,2470.6,2023-2-14T03:12:04Z
2023-02-14T01:12:44Z,42.805,6.029,13.3059,4.60158,2470.577,2023-2-14T03:15:07Z
2023-02-14T01:15:47Z,42.805,6.029,13.3073,4.60135,2470.6,2023-2-14T03:18:10Z
2023-02-14T01:18:50Z,42.805,6.029,13.3043,4.60144,2470.614,2023-2-14T03:21:13Z
2023-02-14T01:21:53Z,42.805,6.029,13.3037,4.60142,2470.614,2023-2-14T03:24:16Z
2023-02-14T01:24:56Z,42.805,6.029,13.3070,4.60150,2470.6,2023-2-14T03:27:19Z
2023-02-14T01:27:59Z,42.805,6.029,13.3069,4.60173,2470.6,2023-2-14T03:30:22Z
2023-02-14T01:31:02Z,42.805,6.029,13.3073,4.60167,2470.6,2023-2-14T03:33:25Z
2023-02-14T01:34:05Z,42.805,6.029,13.3074,4.60165,2470.6,2023-2-14T03:36:29Z
2023-02-14T01:37:08Z,42.805,6.029,13.3058,4.60166,2470.6,2023-2-14T03:39:32Z
2023-02-14T01:40:11Z,42.805,6.029,13.3071,4.60167,2470.646,2023-2-14T03:42:35Z
2023-02-14T01:43:15Z,42.805,6.029,13.3068,4.60194,2470.591,2023-2-14T03:45:38Z
2023-02-14T01:46:18Z,42.805,6.029,13.3061,4.60176,2470.577,2023-2-14T03:48:41Z
2023-02-14T01:49:21Z,42.805,6.029,13.3045,4.60148,2470.614,2023-2-14T03:51:44Z
2023-02-14T01:52:24Z,42.805,6.029,13.3037,4.60152,2470.577,2023-2-14T03:54:47Z
2023-02-14T01:55:27Z,42.805,6.029,13.3031,4.60139,2470.624,2023-2-14T03:57:50Z
2023-02-14T01:58:30Z,42.805,6.029,13.3036,4.60141,2470.624,2023-2-14T04:00:53Z
2023-02-14T02:01:33Z,42.805,6.029,13.3043,4.60172,2470.6,2023-2-14T04:03:56Z
2023-02-14T02:04:36Z,42.805,6.029,13.3095,4.60173,2470.614,2023-2-14T04:06:59Z
2023-02-14T02:07:39Z,42.805,6.029,13.3067,4.60163,2470.614,2023-2-14T04:10:02Z
2023-02-14T02:10:42Z,42.805,6.029,13.3060,4.60157,2470.6,2023-2-14T04:13:06Z
2023-02-14T02:13:45Z,42.805,6.029,13.3040,4.60149,2470.6,2023-2-14T04:16:09Z
2023-02-14T02:16:48Z,42.805,6.029,13.3065,4.60181,2470.591,2023-2-14T04:19:12Z
2023-02-14T02:19:52Z,42.805,6.029,13.3079,4.60187,2470.553,2023-2-14T04:22:15Z
2023-02-14T02:22:55Z,42.805,6.029,13.3062,4.60156,2470.577,2023-2-14T04:25:18Z
2023-02-14T02:25:58Z,42.805,6.029,13.3063,4.60124,2470.581,2023-2-14T04:28:21Z
2023-02-14T02:29:01Z,42.805,6.029,13.3076,4.60194,2470.591,2023-2-14T04:31:24Z
2023-02-14T02:32:04Z,42.805,6.029,13.3076,4.60133,2470.637,2023-2-14T04:34:27Z
2023-02-14T02:35:07Z,42.805,6.029,13.3082,4.60165,2470.591,2023-2-14T04:37:30Z
2023-02-14T02:38:10Z,42.805,6.029,13.3075,4.60159,2470.577,2023-2-14T04:40:33Z
2023-02-14T02:41:13Z,42.805,6.029,13.3093,4.60170,2470.577,2023-2-14T04:43:36Z
2023-02-14T02:44:16Z,42.805,6.029,13.3090,4.60175,2470.553,2023-2-14T04:46:39Z
2023-02-14T02:47:19Z,42.805,6.029,13.3056,4.60162,2470.577,2023-2-14T04:49:42Z
2023-02-14T02:50:22Z,42.805,6.029,13.3084,4.60168,2470.614,2023-2-14T04:52:46Z
2023-02-14T02:53:25Z,42.805,6.029,13.3084,4.60162,2470.614,2023-2-14T04:55:49Z
2023-02-14T02:56:29Z,42.805,6.029,13.3070,4.60201,2470.553,2023-2-14T04:58:52Z
2023-02-14T02:59:32Z,42.805,6.029,13.3081,4.60196,2470.567,2023-2-14T05:01:55Z
2023-02-14T03:02:35Z,42.805,6.029,13.3087,4.60155,2470.567,2023-2-14T05:04:58Z
2023-02-14T03:05:38Z,42.805,6.029,13.3101,4.60193,2470.614,2023-2-14T05:08:01Z
2023-02-14T03:08:41Z,42.805,6.029,13.3106,4.60181,2470.553,2023-2-14T05:11:04Z
2023-02-14T03:11:44Z,42.805,6.029,13.3109,4.60145,2470.591,2023-2-14T05:14:07Z
2023-02-14T03:14:47Z,42.805,6.029,13.3125,4.60162,2470.577,2023-2-14T05:17:10Z
2023-02-14T03:17:50Z,42.805,6.029,13.3106,4.60140,2470.577,2023-2-14T05:20:13Z
2023-02-14T03:20:53Z,42.805,6.029,13.3076,4.60140,2470.614,2023-2-14T05:23:16Z
2023-02-14T03:23:56Z,42.805,6.029,13.3103,4.60144,2470.553,2023-2-14T05:26:19Z
2023-02-14T03:26:59Z,42.805,6.029,13.3093,4.60130,2470.553,2023-2-14T05:29:23Z
2023-02-14T03:30:02Z,42.805,6.029,13.3105,4.60108,2470.6,2023-2-14T05:32:26Z
2023-02-14T03:33:05Z,42.805,6.029,13.3092,4.60129,2470.53,2023-2-14T05:35:29Z
2023-02-14T03:36:09Z,42.805,6.029,13.3085,4.60131,2470.577,2023-2-14T05:38:32Z
2023-02-14T03:39:12Z,42.805,6.029,13.3076,4.60152,2470.591,2023-2-14T05:41:35Z
2023-02-14T03:42:15Z,42.805,6.029,13.3057,4.60149,2470.544,2023-2-14T05:44:38Z
2023-02-14T03:45:18Z,42.805,6.029,13.3073,4.60154,2470.591,2023-2-14T05:47:41Z
2023-02-14T03:48:21Z,42.805,6.029,13.3068,4.60142,2470.553,2023-2-14T05:50:44Z
2023-02-14T03:51:24Z,42.805,6.029,13.3085,4.60123,2470.567,2023-2-14T05:53:47Z
2023-02-14T03:54:27Z,42.805,6.029,13.3109,4.60118,2470.591,2023-2-14T05:56:50Z
2023-02-14T03:57:30Z,42.805,6.029,13.3064,4.60101,2470.577,2023-2-14T05:59:53Z
2023-02-14T04:00:33Z,42.805,6.029,13.3048,4.60142,2470.577,2023-2-14T06:02:56Z
2023-02-14T04:03:36Z,42.805,6.029,13.3065,4.60117,2470.577,2023-2-14T06:05:59Z
2023-02-14T04:06:39Z,42.805,6.029,13.3069,4.60093,2470.6,2023-2-14T06:09:03Z
2023-02-14T04:09:42Z,42.805,6.029,13.3052,4.60112,2470.567,2023-2-14T06:12:06Z
2023-02-14T04:12:45Z,42.805,6.029,13.3035,4.60147,2470.553,2023-2-14T06:15:09Z
2023-02-14T04:15:49Z,42.805,6.029,13.3042,4.60156,2470.586,2023-2-14T06:18:12Z
2023-02-14T04:18:52Z,42.805,6.029,13.3052,4.60094,2470.553,2023-2-14T06:21:15Z
2023-02-14T04:21:55Z,42.805,6.029,13.3048,4.60108,2470.577,2023-2-14T06:24:18Z
2023-02-14T04:24:58Z,42.805,6.029,13.3058,4.60110,2470.553,2023-2-14T06:27:21Z
2023-02-14T04:28:01Z,42.805,6.029,13.3063,4.60104,2470.567,2023-2-14T06:30:24Z
2023-02-14T04:31:04Z,42.805,6.029,13.3107,4.60115,2470.567,2023-2-14T06:33:27Z
2023-02-14T04:34:07Z,42.805,6.029,13.3083,4.60101,2470.553,2023-2-14T06:36:30Z
2023-02-14T04:37:10Z,42.805,6.029,13.3049,4.60128,2470.567,2023-2-14T06:39:33Z
2023-02-14T04:40:13Z,42.805,6.029,13.3061,4.60125,2470.53,2023-2-14T06:42:36Z
2023-02-14T04:43:16Z,42.805,6.029,13.3070,4.60107,2470.544,2023-2-14T06:45:40Z
2023-02-14T04:46:19Z,42.805,6.029,13.3070,4.60119,2470.553,2023-2-14T06:48:43Z
2023-02-14T04:49:22Z,42.805,6.029,13.3062,4.60119,2470.581,2023-2-14T06:51:46Z
2023-02-14T04:52:25Z,42.805,6.029,13.3041,4.60151,2470.53,2023-2-14T06:54:49Z
2023-02-14T04:55:29Z,42.805,6.029,13.3072,4.60102,2470.567,2023-2-14T06:57:52Z
2023-02-14T04:58:32Z,42.805,6.029,13.3052,4.60099,2470.553,2023-2-14T07:00:55Z
2023-02-14T05:01:35Z,42.805,6.029,13.3057,4.60134,2470.591,2023-2-14T07:03:58Z
2023-02-14T05:04:38Z,42.805,6.029,13.3056,4.60131,2470.577,2023-2-14T07:07:01Z
2023-02-14T05:07:41Z,42.805,6.029,13.3062,4.60150,2470.553,2023-2-14T07:10:04Z
2023-02-14T05:10:44Z,42.805,6.029,13.3051,4.60157,2470.53,2023-2-14T07:13:07Z
2023-02-14T05:13:47Z,42.805,6.029,13.3057,4.60114,2470.53,2023-2-14T07:16:10Z
2023-02-14T05:16:50Z,42.805,6.029,13.3051,4.60157,2470.544,2023-2-14T07:19:13Z
2023-02-14T05:19:53Z,42.805,6.029,13.3048,4.60169,2470.567,2023-2-14T07:22:16Z
2023-02-14T05:22:56Z,42.805,6.029,13.3059,4.60185,2470.544,2023-2-14T07:25:20Z
2023-02-14T05:25:59Z,42.805,6.029,13.3074,4.60166,2470.567,2023-2-14T07:28:23Z
2023-02-14T05:29:02Z,42.805,6.029,13.3104,4.60177,2470.591,2023-2-14T07:31:26Z
2023-02-14T05:32:06Z,42.805,6.029,13.3097,4.60182,2470.567,2023-2-14T07:34:29Z
2023-02-14T05:35:09Z,42.805,6.029,13.3070,4.60145,2470.553,2023-2-14T07:37:32Z
2023-02-14T05:38:12Z,42.805,6.029,13.3082,4.60173,2470.553,2023-2-14T07:40:35Z
2023-02-14T05:41:15Z,42.805,6.029,13.3085,4.60105,2470.567,2023-2-14T07:43:38Z
2023-02-14T05:44:18Z,42.805,6.029,13.3083,4.60105,2470.53,2023-2-14T07:46:41Z
2023-02-14T05:47:21Z,42.805,6.029,13.3076,4.60108,2470.567,2023-2-14T07:49:44Z
2023-02-14T05:50:24Z,42.805,6.029,13.3109,4.60132,2470.544,2023-2-14T07:52:47Z
2023-02-14T05:53:27Z,42.805,6.029,13.3073,4.60131,2470.567,2023-2-14T07:55:50Z
2023-02-14T05:56:30Z,42.805,6.029,13.3083,4.60161,2470.507,2023-2-14T07:58:53Z
2023-02-14T05:59:33Z,42.805,6.029,13.3067,4.60186,2470.544,2023-2-14T08:01:57Z
2023-02-14T06:02:36Z,42.805,6.029,13.3082,4.60169,2470.53,2023-2-14T08:05:00Z
2023-02-14T06:05:39Z,42.805,6.029,13.3099,4.60160,2470.507,2023-2-14T08:08:03Z
2023-02-14T06:08:42Z,42.805,6.029,13.3082,4.60156,2470.53,2023-2-14T08:11:06Z
2023-02-14T06:11:46Z,42.805,6.029,13.3107,4.60099,2470.544,2023-2-14T08:14:09Z
2023-02-14T06:14:49Z,42.805,6.029,13.3079,4.60155,2470.553,2023-2-14T08:17:12Z
2023-02-14T06:17:52Z,42.805,6.029,13.3067,4.60117,2470.52,2023-2-14T08:20:15Z
2023-02-14T06:20:55Z,42.805,6.029,13.3075,4.60155,2470.553,2023-2-14T08:23:18Z
2023-02-14T06:23:58Z,42.805,6.029,13.3069,4.60114,2470.544,2023-2-14T08:26:21Z
2023-02-14T06:27:01Z,42.805,6.029,13.3069,4.60143,2470.567,2023-2-14T08:29:24Z
2023-02-14T06:30:04Z,42.805,6.029,13.3071,4.60100,2470.53,2023-2-14T08:32:27Z
2023-02-14T06:33:07Z,42.805,6.029,13.3073,4.60095,2470.53,2023-2-14T08:35:30Z
2023-02-14T06:36:10Z,42.805,6.029,13.3070,4.60154,2470.544,2023-2-14T08:38:33Z
2023-02-14T06:39:13Z,42.805,6.029,13.3070,4.60111,2470.53,2023-2-14T08:41:37Z
2023-02-14T06:42:16Z,42.805,6.029,13.3069,4.60119,2470.53,2023-2-14T08:44:40Z
2023-02-14T06:45:19Z,42.805,6.029,13.3069,4.60142,2470.544,2023-2-14T08:47:43Z
2023-02-14T06:48:23Z,42.805,6.029,13.3069,4.60105,2470.591,2023-2-14T08:50:46Z
2023-02-14T06:51:26Z,42.805,6.029,13.3023,4.60090,2470.553,2023-2-14T08:53:49Z
2023-02-14T06:54:29Z,42.805,6.029,13.3047,4.60084,2470.544,2023-2-14T08:56:52Z
2023-02-14T06:57:32Z,42.805,6.029,13.3026,4.60090,2470.53,2023-2-14T08:59:55Z
2023-02-14T07:00:35Z,42.805,6.029,13.3028,4.60085,2470.567,2023-2-14T09:02:58Z
2023-02-14T07:03:38Z,42.805,6.029,13.3031,4.60081,2470.53,2023-2-14T09:06:01Z
2023-02-14T07:06:41Z,42.805,6.029,13.3028,4.60080,2470.553,2023-2-14T09:09:04Z
2023-02-14T07:09:44Z,42.805,6.029,13.3038,4.60093,2470.553,2023-2-14T09:12:07Z
2023-02-14T07:12:47Z,42.805,6.029,13.3037,4.60105,2470.544,2023-2-14T09:15:10Z
2023-02-14T07:15:50Z,42.805,6.029,13.3053,4.60099,2470.507,2023-2-14T09:18:13Z
2023-02-14T07:18:53Z,42.805,6.029,13.3079,4.60082,2470.53,2023-2-14T09:21:17Z
2023-02-14T07:21:56Z,42.805,6.029,13.3019,4.60080,2470.553,2023-2-14T09:24:20Z
2023-02-14T07:24:59Z,42.805,6.029,13.3021,4.60087,2470.567,2023-2-14T09:27:23Z
2023-02-14T07:28:02Z,42.805,6.029,13.3018,4.60076,2470.507,2023-2-14T09:30:26Z
2023-02-14T07:31:06Z,42.805,6.029,13.3019,4.60079,2470.544,2023-2-14T09:33:29Z
2023-02-14T07:34:09Z,42.805,6.029,13.3034,4.60080,2470.507,2023-2-14T09:36:32Z
2023-02-14T07:37:12Z,42.805,6.029,13.3029,4.60087,2470.553,2023-2-14T09:39:35Z
2023-02-14T07:40:15Z,42.805,6.029,13.3038,4.60099,2470.52,2023-2-14T09:42:38Z
2023-02-14T07:43:18Z,42.805,6.029,13.3054,4.60084,2470.567,2023-2-14T09:45:41Z
2023-02-14T07:46:21Z,42.805,6.029,13.3063,4.60114,2470.553,2023-2-14T09:48:44Z
2023-02-14T07:49:24Z,42.805,6.029,13.3058,4.60097,2470.544,2023-2-14T09:51:47Z
2023-02-14T07:52:27Z,42.805,6.029,13.3042,4.60075,2470.544,2023-2-14T09:54:50Z
2023-02-14T07:55:30Z,42.805,6.029,13.3051,4.60110,2470.553,2023-2-14T09:57:54Z
2023-02-14T07:58:33Z,42.805,6.029,13.3054,4.60105,2470.53,2023-2-14T10:00:57Z
2023-02-14T08:01:36Z,42.805,6.029,13.3054,4.60093,2470.553,2023-2-14T10:04:00Z
2023-02-14T08:04:39Z,42.805,6.029,13.3061,4.60104,2470.539,2023-2-14T10:07:03Z
2023-02-14T08:07:43Z,42.805,6.029,13.3047,4.60120,2470.553,2023-2-14T10:10:06Z
2023-02-14T08:10:46Z,42.805,6.029,13.3060,4.60110,2470.567,2023-2-14T10:13:09Z
2023-02-14T08:13:49Z,42.805,6.029,13.3062,4.60106,2470.53,2023-2-14T10:16:12Z
2023-02-14T08:16:52Z,42.805,6.029,13.3063,4.60110,2470.544,2023-2-14T10:19:15Z
2023-02-14T08:19:55Z,42.805,6.029,13.3063,4.60099,2470.553,2023-2-14T10:22:18Z
2023-02-14T08:22:58Z,42.805,6.029,13.3053,4.60117,2470.544,2023-2-14T10:25:21Z
2023-02-14T08:26:01Z,42.805,6.029,13.3051,4.60094,2470.553,2023-2-14T10:28:24Z
2023-02-14T08:29:04Z,42.805,6.029,13.3044,4.60121,2470.507,2023-2-14T10:31:27Z
2023-02-14T08:32:07Z,42.805,6.029,13.3042,4.60114,2470.567,2023-2-14T10:34:31Z
2023-02-14T08:35:10Z,42.805,6.029,13.3046,4.60117,2470.53,2023-2-14T10:37:34Z
2023-02-14T08:38:13Z,42.805,6.029,13.3046,4.60105,2470.53,2023-2-14T10:40:37Z
2023-02-14T08:41:16Z,42.805,6.029,13.3053,4.60114,2470.567,2023-2-14T10:43:40Z
2023-02-14T08:44:20Z,42.805,6.029,13.3039,4.60093,2470.53,2023-2-14T10:46:43Z
2023-02-14T08:47:23Z,42.805,6.029,13.3051,4.60120,2470.553,2023-2-14T10:49:46Z
2023-02-14T08:50:26Z,42.805,6.029,13.3049,4.60101,2470.544,2023-2-14T10:52:49Z
2023-02-14T08:53:29Z,42.805,6.029,13.3049,4.60100,2470.53,2023-2-14T10:55:52Z
2023-02-14T08:56:32Z,42.805,6.029,13.3037,4.60087,2470.553,2023-2-14T10:58:55Z
2023-02-14T08:59:35Z,42.805,6.029,13.3047,4.60117,2470.53,2023-2-14T11:01:58Z
2023-02-14T09:02:38Z,42.805,6.029,13.3046,4.60132,2470.591,2023-2-14T11:05:01Z
2023-02-14T09:05:41Z,42.805,6.029,13.3049,4.60104,2470.577,2023-2-14T11:08:05Z
2023-02-14T09:08:44Z,42.805,6.029,13.3047,4.60097,2470.553,2023-2-14T11:11:08Z
2023-02-14T09:11:47Z,42.805,6.029,13.3044,4.60121,2470.553,2023-2-14T11:14:11Z
2023-02-14T09:14:50Z,42.805,6.029,13.3051,4.60135,2470.53,2023-2-14T11:17:14Z
2023-02-14T09:17:53Z,42.805,6.029,13.3048,4.60097,2470.544,2023-2-14T11:20:17Z
2023-02-14T09:20:57Z,42.805,6.029,13.3044,4.60140,2470.567,2023-2-14T11:23:20Z
2023-02-14T09:24:00Z,42.805,6.029,13.3046,4.60121,2470.567,2023-2-14T11:26:23Z
2023-02-14T09:27:03Z,42.805,6.029,13.3042,4.60098,2470.544,2023-2-14T11:29:26Z
2023-02-14T09:30:06Z,42.805,6.029,13.3046,4.60092,2470.567,2023-2-14T11:32:29Z
2023-02-14T09:33:09Z,42.805,6.029,13.3038,4.60149,2470.53,2023-2-14T11:35:32Z
2023-02-14T09:36:12Z,42.805,6.029,13.3048,4.60131,2470.553,2023-2-14T11:38:35Z
2023-02-14T09:39:15Z,42.805,6.029,13.3045,4.60131,2470.591,2023-2-14T11:41:38Z
2023-02-14T09:42:18Z,42.805,6.029,13.3049,4.60140,2470.53,2023-2-14T11:44:42Z
2023-02-14T09:45:21Z,42.805,6.029,13.3044,4.60100,2470.591,2023-2-14T11:47:45Z
2023-02-14T09:48:24Z,42.805,6.029,13.3042,4.60114,2470.553,2023-2-14T11:50:48Z
2023-02-14T09:51:27Z,42.805,6.029,13.3041,4.60126,2470.567,2023-2-14T11:53:51Z
2023-02-14T09:54:31Z,42.805,6.029,13.3034,4.60123,2470.544,2023-2-14T11:56:54Z
2023-02-14T09:57:34Z,42.805,6.029,13.3036,4.60119,2470.53,2023-2-14T11:59:57Z
2023-02-14T10:00:37Z,42.805,6.029,13.3027,4.60127,2470.567,2023-2-14T12:03:00Z
2023-02-14T10:03:40Z,42.805,6.029,13.3033,4.60110,2470.591,2023-2-14T12:06:03Z
2023-02-14T10:06:43Z,42.805,6.029,13.3035,4.60112,2470.567,2023-2-14T12:09:06Z
2023-02-14T10:09:46Z,42.805,6.029,13.3035,4.60120,2470.567,2023-2-14T12:12:09Z
2023-02-14T10:12:49Z,42.805,6.029,13.3053,4.60125,2470.567,2023-2-14T12:15:12Z
2023-02-14T10:15:52Z,42.805,6.029,13.3041,4.60148,2470.577,2023-2-14T12:18:16Z
2023-02-14T10:18:55Z,42.805,6.029,13.3044,4.60144,2470.591,2023-2-14T12:21:19Z
2023-02-14T10:21:58Z,42.805,6.029,13.3034,4.60126,2470.577,2023-2-14T12:24:22Z
2023-02-14T10:25:01Z,42.805,6.029,13.3034,4.60135,2470.553,2023-2-14T12:27:25Z
2023-02-14T10:28:04Z,42.805,6.029,13.3037,4.60142,2470.567,2023-2-14T12:30:28Z
2023-02-14T10:31:08Z,42.805,6.029,13.3045,4.60132,2470.553,2023-2-14T12:33:31Z
2023-02-14T10:34:11Z,42.805,6.029,13.3034,4.60132,2470.577,2023-2-14T12:36:34Z
2023-02-14T10:37:14Z,42.805,6.029,13.3037,4.60102,2470.6,2023-2-14T12:39:37Z
2023-02-14T10:40:17Z,42.805,6.029,13.3043,4.60124,2470.577,2023-2-14T12:42:40Z
2023-02-14T10:43:20Z,42.805,6.029,13.3027,4.60111,2470.591,2023-2-14T12:45:43Z
2023-02-14T10:46:23Z,42.805,6.029,13.3028,4.60136,2470.567,2023-2-14T12:48:46Z
2023-02-14T10:49:26Z,42.805,6.029,13.3030,4.60131,2470.591,2023-2-14T12:51:49Z
2023-02-14T10:52:29Z,42.805,6.029,13.3029,4.60117,2470.591,2023-2-14T12:54:53Z
2023-02-14T10:55:32Z,42.805,6.029,13.3028,4.60125,2470.567,2023-2-14T12:57:56Z
2023-02-14T10:58:35Z,42.805,6.029,13.3038,4.60122,2470.577,2023-2-14T13:00:59Z
2023-02-14T11:01:38Z,42.805,6.029,13.3034,4.60117,2470.577,2023-2-14T13:04:02Z
2023-02-14T11:04:41Z,42.805,6.029,13.3036,4.60122,2470.591,2023-2-14T13:07:05Z
2023-02-14T11:07:45Z,42.805,6.029,13.3030,4.60104,2470.577,2023-2-14T13:10:08Z
2023-02-14T11:10:48Z,42.805,6.029,13.3032,4.60127,2470.577,2023-2-14T13:13:11Z
2023-02-14T11:13:51Z,42.805,6.029,13.3034,4.60119,2470.553,2023-2-14T13:16:14Z
2023-02-14T11:16:54Z,42.805,6.029,13.3033,4.60125,2470.591,2023-2-14T13:19:17Z
2023-02-14T11:19:57Z,42.805,6.029,13.3031,4.60102,2470.614,2023-2-14T13:22:20Z
2023-02-14T11:23:00Z,42.805,6.029,13.3041,4.60113,2470.6,2023-2-14T13:25:23Z
2023-02-14T11:26:03Z,42.805,6.029,13.3050,4.60149,2470.577,2023-2-14T13:28:26Z
2023-02-14T11:29:06Z,42.805,6.029,13.3034,4.60116,2470.591,2023-2-14T13:31:30Z
2023-02-14T11:32:09Z,42.805,6.029,13.3026,4.60105,2470.577,2023-2-14T13:34:33Z
2023-02-14T11:35:12Z,42.805,6.029,13.3021,4.60116,2470.614,2023-2-14T13:37:36Z
2023-02-14T11:38:15Z,42.805,6.029,13.3028,4.60114,2470.614,2023-2-14T13:40:39Z
2023-02-14T11:41:19Z,42.805,6.029,13.3034,4.60120,2470.577,2023-2-14T13:43:42Z
2023-02-14T11:44:22Z,42.805,6.029,13.3039,4.60109,2470.6,2023-2-14T13:46:45Z
2023-02-14T11:47:25Z,42.805,6.029,13.3036,4.60126,2470.577,2023-2-14T13:49:48Z
2023-02-14T11:50:28Z,42.805,6.029,13.3032,4.60122,2470.567,2023-2-14T13:52:51Z
2023-02-14T11:53:31Z,42.805,6.029,13.3035,4.60133,2470.577,2023-2-14T13:55:54Z
2023-02-14T11:56:34Z,42.805,6.029,13.3030,4.60134,2470.6,2023-2-14T13:58:57Z
2023-02-14T11:59:37Z,42.805,6.029,13.3027,4.60119,2470.614,2023-2-14T14:02:00Z
2023-02-14T12:02:40Z,42.805,6.029,13.3031,4.60111,2470.577,2023-2-14T14:05:04Z
2023-02-14T12:05:43Z,42.805,6.029,13.3038,4.60124,2470.6,2023-2-14T14:08:07Z
2023-02-14T12:08:46Z,42.805,6.029,13.3043,4.60147,2470.577,2023-2-14T14:11:10Z
2023-02-14T12:11:49Z,42.805,6.029,13.3030,4.60133,2470.577,2023-2-14T14:14:13Z
2023-02-14T12:14:52Z,42.805,6.029,13.3030,4.60125,2470.6,2023-2-14T14:17:16Z
2023-02-14T12:17:56Z,42.805,6.029,13.3041,4.60133,2470.624,2023-2-14T14:20:19Z
2023-02-14T12:20:59Z,42.805,6.029,13.3030,4.60131,2470.591,2023-2-14T14:23:22Z
2023-02-14T12:24:02Z,42.805,6.029,13.3034,4.60115,2470.624,2023-2-14T14:26:25Z
2023-02-14T12:27:05Z,42.805,6.029,13.3034,4.60130,2470.567,2023-2-14T14:29:28Z
2023-02-14T12:30:08Z,42.805,6.029,13.3039,4.60139,2470.614,2023-2-14T14:32:31Z
2023-02-14T12:33:11Z,42.805,6.029,13.3033,4.60105,2470.591,2023-2-14T14:35:34Z
2023-02-14T12:36:14Z,42.805,6.029,13.3034,4.60126,2470.577,2023-2-14T14:38:37Z
2023-02-14T12:39:17Z,42.805,6.029,13.3027,4.60119,2470.591,2023-2-14T14:41:41Z
2023-02-14T12:42:20Z,42.805,6.029,13.3038,4.60104,2470.563,2023-2-14T14:44:44Z
2023-02-14T12:45:23Z,42.805,6.029,13.3034,4.60111,2470.614,2023-2-14T14:47:47Z
2023-02-14T12:48:26Z,42.805,6.029,13.3024,4.60109,2470.553,2023-2-14T14:50:50Z
2023-02-14T12:51:29Z,42.805,6.029,13.3029,4.60115,2470.6,2023-2-14T14:53:53Z
2023-02-14T12:54:33Z,42.805,6.029,13.3048,4.60114,2470.614,2023-2-14T14:56:56Z
2023-02-14T12:57:36Z,42.805,6.029,13.3030,4.60101,2470.591,2023-2-14T14:59:59Z
2023-02-14T13:00:39Z,42.805,6.029,13.3026,4.60088,2470.591,2023-2-14T15:03:02Z
2023-02-14T13:03:42Z,42.805,6.029,13.3033,4.60094,2470.591,2023-2-14T15:06:05Z
2023-02-14T13:06:45Z,42.805,6.029,13.3035,4.60105,2470.614,2023-2-14T15:09:08Z
2023-02-14T13:09:48Z,42.805,6.029,13.3025,4.60121,2470.6,2023-2-14T15:12:11Z
2023-02-14T13:12:51Z,42.805,6.029,13.3026,4.60107,2470.577,2023-2-14T15:15:14Z
2023-02-14T13:15:54Z,42.805,6.029,13.3033,4.60109,2470.591,2023-2-14T15:18:18Z
2023-02-14T13:18:57Z,42.805,6.029,13.3037,4.60121,2470.614,2023-2-14T15:21:21Z
2023-02-14T13:22:00Z,42.805,6.029,13.3027,4.60104,2470.591,2023-2-14T15:24:24Z
2023-02-14T13:25:03Z,42.805,6.029,13.3031,4.60122,2470.6,2023-2-14T15:27:27Z
2023-02-14T13:28:06Z,42.805,6.029,13.3026,4.60113,2470.6,2023-2-14T15:30:30Z
2023-02-14T13:31:10Z,42.805,6.029,13.3031,4.60108,2470.577,2023-2-14T15:33:33Z
2023-02-14T13:34:13Z,42.805,6.029,13.3032,4.60112,2470.577,2023-2-14T15:36:36Z
2023-02-14T13:37:16Z,42.805,6.029,13.3027,4.60092,2470.567,2023-2-14T15:39:39Z
2023-02-14T13:40:19Z,42.805,6.029,13.3029,4.60107,2470.553,2023-2-14T15:42:42Z
2023-02-14T13:43:22Z,42.805,6.029,13.3025,4.60114,2470.567,2023-2-14T15:45:45Z
2023-02-14T13:46:25Z,42.805,6.029,13.3025,4.60116,2470.591,2023-2-14T15:48:48Z
2023-02-14T13:49:28Z,42.805,6.029,13.3027,4.60112,2470.591,2023-2-14T15:51:52Z
2023-02-14T13:52:31Z,42.805,6.029,13.3028,4.60112,2470.577,2023-2-14T15:54:55Z
2023-02-14T13:55:34Z,42.805,6.029,13.3026,4.60132,2470.553,2023-2-14T15:57:58Z
2023-02-14T13:58:37Z,42.805,6.029,13.3030,4.60101,2470.567,2023-2-14T16:01:01Z
2023-02-14T14:01:40Z,42.805,6.029,13.3031,4.60098,2470.577,2023-2-14T16:04:04Z
2023-02-14T14:04:43Z,42.805,6.029,13.3026,4.60102,2470.577,2023-2-14T16:07:07Z
2023-02-14T14:07:47Z,42.805,6.029,13.3030,4.60103,2470.553,2023-2-14T16:10:10Z
2023-02-14T14:10:50Z,42.805,6.029,13.3028,4.60102,2470.553,2023-2-14T16:13:13Z
2023-02-14T14:13:53Z,42.805,6.029,13.3034,4.60110,2470.553,2023-2-14T16:16:16Z
2023-02-14T14:16:56Z,42.805,6.029,13.3041,4.60111,2470.553,2023-2-14T16:19:19Z
2023-02-14T14:19:59Z,42.805,6.029,13.3034,4.60104,2470.567,2023-2-14T16:22:22Z
2023-02-14T14:23:02Z,42.805,6.029,13.3043,4.60114,2470.567,2023-2-14T16:25:25Z
2023-02-14T14:26:05Z,42.805,6.029,13.3045,4.60141,2470.553,2023-2-14T16:28:29Z
2023-02-14T14:29:08Z,42.805,6.029,13.3023,4.60109,2470.567,2023-2-14T16:31:32Z
2023-02-14T14:32:11Z,42.805,6.029,13.3036,4.60110,2470.567,2023-2-14T16:34:35Z
2023-02-14T14:35:14Z,42.805,6.029,13.3038,4.60129,2470.567,2023-2-14T16:37:38Z
2023-02-14T14:38:17Z,42.805,6.029,13.3042,4.60126,2470.544,2023-2-14T16:40:41Z
2023-02-14T14:41:20Z,42.805,6.029,13.3034,4.60146,2470.553,2023-2-14T16:43:44Z
2023-02-14T14:44:24Z,42.805,6.029,13.3028,4.60089,2470.544,2023-2-14T16:46:47Z
2023-02-14T14:47:27Z,42.805,6.029,13.3026,4.60103,2470.544,2023-2-14T16:49:50Z
2023-02-14T14:50:30Z,42.805,6.029,13.3026,4.60108,2470.577,2023-2-14T16:52:53Z
2023-02-14T14:53:33Z,42.805,6.029,13.3038,4.60122,2470.507,2023-2-14T16:55:56Z
2023-02-14T14:56:36Z,42.805,6.029,13.3035,4.60121,2470.53,2023-2-14T16:58:59Z
2023-02-14T14:59:39Z,42.805,6.029,13.3023,4.60091,2470.53,2023-2-14T17:02:02Z
2023-02-14T15:02:42Z,42.805,6.029,13.3041,4.60127,2470.52,2023-2-14T17:05:06Z
2023-02-14T15:05:45Z,42.805,6.029,13.3024,4.60098,2470.544,2023-2-14T17:08:09Z
2023-02-14T15:08:48Z,42.805,6.029,13.3034,4.60118,2470.544,2023-2-14T17:11:12Z
2023-02-14T15:11:51Z,42.805,6.029,13.3026,4.60112,2470.53,2023-2-14T17:14:15Z
2023-02-14T15:14:54Z,42.805,6.029,13.3048,4.60115,2470.53,2023-2-14T17:17:18Z